This is the latest recevied weather packets stored in our database for station/object W4ZHA. If no packets are shown the sender has not sent any weather packets the latest 10 day(s).
| Time | Temp. | Humidity | Pressure | Rain* | Wind** | Luminosity | Snow |
|---|---|---|---|---|---|---|---|
| 1787980698 | 22.78° C | 69% | 1019 hPa | 0 mm | - | 0 W/m² | - |
| 1787980393 | 22.78° C | 70% | 1019 hPa | 0 mm | - | 0 W/m² | - |
| 1787980089 | 22.78° C | 70% | 1019.3 hPa | 0 mm | - | 0 W/m² | - |
| 1787979784 | 22.78° C | 69% | 1019 hPa | 0 mm | - | 0 W/m² | - |
| 1787979482 | 22.78° C | 69% | 1019 hPa | 0 mm | - | 0 W/m² | - |
| 1787979177 | 23.33° C | 69% | 1019 hPa | 0 mm | - | 0 W/m² | - |
| 1787978876 | 23.33° C | 70% | 1019 hPa | 0 mm | - | 0 W/m² | - |
| 1787978571 | 23.33° C | 69% | 1018.6 hPa | 0 mm | - | 0 W/m² | - |
| 1787978267 | 23.33° C | 69% | 1018.6 hPa | 0 mm | - | 0 W/m² | - |
| 1787977966 | 23.33° C | 69% | 1018.6 hPa | 0 mm | - | 0 W/m² | - |
| 1787977666 | 23.89° C | 69% | 1018.6 hPa | 0 mm | - | 0 W/m² | - |
| 1787977362 | 23.89° C | 69% | 1018.6 hPa | 0 mm | - | 0 W/m² | - |
| 1787977057 | 23.89° C | 69% | 1018.6 hPa | 0 mm | - | 0 W/m² | - |
| 1787976752 | 23.89° C | 68% | 1018.6 hPa | 0 mm | - | 0 W/m² | - |
| 1787976447 | 24.44° C | 67% | 1018.6 hPa | 0 mm | - | 0 W/m² | - |
| 1787976142 | 24.44° C | 67% | 1018.6 hPa | 0 mm | - | 0 W/m² | - |
| 1787975841 | 25° C | 67% | 1018.3 hPa | 0 mm | - | 0 W/m² | - |
| 1787975540 | 25° C | 67% | 1017.9 hPa | 0 mm | - | 0 W/m² | - |
| 1787975239 | 25° C | 67% | 1018.3 hPa | 0 mm | - | 0 W/m² | - |
| 1787974938 | 25° C | 67% | 1018.6 hPa | 0 mm | - | 0 W/m² | - |
| 1787974637 | 25° C | 67% | 1018.6 hPa | 0 mm | - | 0 W/m² | - |
| 1787974332 | 25° C | 67% | 1018.6 hPa | 0 mm | - | 0 W/m² | - |
| 1787974031 | 25° C | 67% | 1018.6 hPa | 0 mm | - | 0 W/m² | - |
| 1787973727 | 25° C | 66% | 1018.3 hPa | 0 mm | - | 0 W/m² | - |
| 1787973427 | 24.44° C | 67% | 1018.6 hPa | 0 mm | - | 0 W/m² | - |
* Rain latest hour (hover to see other rain measurements)
** Current wind speed in m/s (hover to see current wind gust speed)